Location: St. Louis
(38.6270°N, 90.1994°W)
Time: 12:04:07
(UTC-06:00)

Altair - Pass Details

Date: 04 December 2021
Orbit: 1501 x 1683 km, 47.2° (Epoch: 25 January)

Event Time Altitude Azimuth Distance (km) Brightness Sun altitude
Rises 21:25:25 0° 300° (WNW) 4,661 10.6 -54.9°
Reaches altitude 10° 21:28:28 10° 299° (WNW) 3,666 9.9 -55.5°
Enters shadow 21:30:51 21° 297° (WNW) 2,911 9.2 -55.9°
Maximum altitude 21:37:37 75° 216° (SW) 1,546 - -57.2°
Drops below altitude 10° 21:46:46 10° 133° (SE) 3,666 - -58.9°
Sets 21:49:49 0° 132° (SE) 4,661 - -59.4°
